Location: Kitchener-Waterloo
(43.4500°N, 80.5000°W)
Time: 10:39:51
(UTC-04:00)

Amateur Radio Satellites - All Passes

Search period start: 29 August 2015 10:09
Search period end: 30 August 2015 10:09
Location: Kitchener-Waterloo, 43.4500°N, 80.5000°W

Satellite Date Start Highest point End Downlink Frequencies (MHz)
Time Altitude Azimuth
ISS 29 Aug 10:09:55 10:12:36 24° 137° (SE) 10:15:18 145.825
DOVE 4 29 Aug 10:10:08 10:15:24 65° 286° (WNW) 10:20:39 437.250
FUNcube-1 29 Aug 10:12:37 10:15:24 16° 89° (E) 10:18:18 145.935
PCSat 29 Aug 10:14:00 10:16:27 13° 32° (NNE) 10:19:04 145.827
UNISAT 6 29 Aug 10:15:04 10:19:04 29° 68° (ENE) 10:23:10 437.425
AAUSAT CUBESAT 2 29 Aug 10:19:08 10:23:16 65° 101° (E) 10:27:21 437.432
AIST 1 29 Aug 10:19:25 10:22:43 21° 289° (WNW) 10:25:56
POLYITAN 1 29 Aug 10:24:57 10:26:57 13° 63° (ENE) 10:29:08 437.675
POPSAT HIP 1 29 Aug 10:28:34 10:30:44 14° 63° (ENE) 10:33:05 437.405
DUCHIFAT 1 29 Aug 10:31:39 10:33:54 15° 64° (ENE) 10:36:19 145.980
CUTE 1.7 + AOD 2 29 Aug 10:34:38 10:38:42 44° 288° (WNW) 10:42:42 437.475
BRITE-PL 29 Aug 10:36:53 10:40:34 18° 296° (WNW) 10:44:11 437.365/2234.400
CUSAT 1 29 Aug 10:38:43 10:44:37 26° 65° (ENE) 10:51:17 437.405
HO-68 29 Aug 10:41:44 10:48:52 66° 291° (WNW) 10:55:58 435.675
QB50P2 29 Aug 10:43:39 10:46:47 21° 66° (ENE) 10:50:02 145.880/145.840
TIGRISAT 29 Aug 10:44:15 10:48:46 54° 73° (ENE) 10:53:24 435.000
DANDE 29 Aug 10:45:10 10:50:08 20° 63° (ENE) 10:56:00 436.750
Cosmos 2491 29 Aug 10:46:19 10:54:59 67° 282° (WNW) 11:03:41 435.465 / 435.565
NANOSAT C BR1 29 Aug 10:47:01 10:50:11 21° 66° (ENE) 10:53:27 145.865
CANX-2 29 Aug 10:48:28 10:52:10 29° 291° (WNW) 10:55:47 2200.000
BUGSAT 1 29 Aug 10:52:25 10:54:35 15° 64° (ENE) 10:56:57 437.445
AUBIESAT-1 29 Aug 10:52:27 10:57:13 89° 71° (ENE) 11:01:57 437.475
M-CUBED/EXP-1 PRIME 29 Aug 10:54:49 10:59:36 76° 252° (WSW) 11:04:24 437.505
QB50P1 29 Aug 10:58:53 11:02:30 28° 69° (ENE) 11:06:12 145.935-145.965
ANTELSAT 29 Aug 10:59:55 11:04:34 80° 77° (ENE) 11:09:20 437.575/2403.000
Oscar 11 29 Aug 11:04:14 11:08:35 89° 102° (ESE) 11:12:53 145.826/435.025
DELFI C3 29 Aug 11:04:23 11:08:21 58° 100° (E) 11:12:16 145.870
PHONESAT 2.4 29 Aug 11:08:15 11:11:30 43° 190° (S) 11:14:45 2401.200-2431.200
SO-50 29 Aug 11:09:36 11:14:35 77° 53° (NE) 11:19:26 436.795
UKube-1 29 Aug 11:10:24 11:12:24 13° 89° (E) 11:14:36 .
HUMSAT D 29 Aug 11:14:40 11:18:23 29° 95° (E) 11:22:04 437.325/437.525
SEEDS 29 Aug 11:15:40 11:18:53 21° 293° (WNW) 11:22:00 437.485
Cosmos 2504 29 Aug 11:17:34 11:26:07 66° 78° (ENE) 11:34:11 435.465 / 435.565
CINEMA 3 29 Aug 11:18:01 11:22:30 32° 292° (WNW) 11:26:50 145.822/145.860
GOMX 1 29 Aug 11:22:20 11:24:28 12° 301° (WNW) 11:26:20 467.674
CUBEBUG 2 29 Aug 11:27:56 11:32:31 49° 288° (WNW) 11:36:58 437.445
VELOX 1 29 Aug 11:31:39 11:34:24 16° 90° (E) 11:37:19 145.980
ZACube-1 29 Aug 11:40:51 11:45:20 58° 286° (WNW) 11:49:42 437.345
UWE-3 29 Aug 11:41:11 11:45:37 45° 288° (WNW) 11:49:55 435.000/436.395/437.385
COMPASS 1 29 Aug 11:43:17 11:45:37 14° 296° (WNW) 11:47:46 437.405
ISS 29 Aug 11:45:41 11:48:50 47° 333° (NNW) 11:52:00 145.825
FUNcube-1 29 Aug 11:47:41 11:52:05 51° 287° (WNW) 11:56:22 145.935
UNISAT 6 29 Aug 11:51:35 11:55:47 31° 265° (W) 11:59:58 437.425
PCSat 29 Aug 11:55:47 12:01:09 57° 55° (NE) 12:06:29 145.827
AAUSAT CUBESAT 2 29 Aug 11:56:33 11:58:22 12° 297° (WNW) 12:00:00 437.432
POLYITAN 1 29 Aug 11:58:07 12:02:21 65° 259° (WSW) 12:06:38 437.675
YUBILEINY 29 Aug 12:00:16 12:03:05 11° 287° (WNW) 12:05:11 435.215
POPSAT HIP 1 29 Aug 12:01:57 12:06:09 60° 259° (W) 12:10:24 437.405
50 SAT 29 Aug 12:03:57 12:07:39 41° 98° (E) 12:11:19 437.505
DUCHIFAT 1 29 Aug 12:05:07 12:09:16 57° 260° (W) 12:13:28 145.980
ESTCUBE 1 29 Aug 12:13:59 12:18:04 34° 96° (E) 12:22:11 437.505/2401.250
QB50P2 29 Aug 12:18:28 12:22:27 38° 263° (W) 12:26:27 145.880/145.840
Oscar 19 29 Aug 12:18:36 12:20:26 12° 58° (ENE) 12:22:32 437.125/150
CUSAT 1 29 Aug 12:20:19 12:27:49 77° 262° (W) 12:36:04 437.405
NANOSAT C BR1 29 Aug 12:21:52 12:25:48 36° 263° (W) 12:29:45 145.865
TIGRISAT 29 Aug 12:22:47 12:25:53 17° 271° (W) 12:28:52 435.000
BUGSAT 1 29 Aug 12:25:42 12:29:40 52° 260° (W) 12:33:41 437.445
DANDE 29 Aug 12:26:49 12:34:03 88° 79° (E) 12:42:32 436.750
DX 1 29 Aug 12:27:23 12:31:48 83° 283° (WNW) 12:36:12 434.975-435.025
AUBIESAT-1 29 Aug 12:31:11 12:32:33 11° 269° (W) 12:33:37 437.475
HO-68 29 Aug 12:31:40 12:35:26 15° 310° (NW) 12:38:51 435.675
QB50P1 29 Aug 12:34:43 12:38:21 26° 266° (W) 12:41:57 145.935-145.965
AISAT 29 Aug 12:37:42 12:42:13 84° 103° (ESE) 12:46:42 437.250
ANTELSAT 29 Aug 12:40:31 12:42:02 11° 274° (W) 12:43:18 437.575/2403.000
DELFI C3 29 Aug 12:41:06 12:42:58 13° 296° (WNW) 12:44:39 145.870
Oscar 11 29 Aug 12:43:50 12:44:08 10° 299° (WNW) 12:44:12 145.826/435.025
UKube-1 29 Aug 12:44:41 12:48:59 59° 287° (WNW) 12:53:14 .
PHONESAT 2.4 29 Aug 12:46:37 12:48:57 17° 206° (SSW) 12:51:14 2401.200-2431.200
CUBEBUG 1 29 Aug 12:47:17 12:51:41 64° 102° (ESE) 12:56:05 437.445
Cosmos 2491 29 Aug 12:49:26 12:54:03 14° 307° (NW) 12:58:07 435.465 / 435.565
HUMSAT D 29 Aug 12:50:26 12:54:02 26° 292° (WNW) 12:57:30 437.325/437.525
GONETS M04 29 Aug 12:51:01 12:55:18 15° 53° (NE) 13:00:09
SO-50 29 Aug 12:51:50 12:54:33 14° 251° (WSW) 12:57:01 436.795
SPROUT 29 Aug 12:54:33 12:58:04 24° 93° (E) 13:01:39 437.525
VELOX 1 29 Aug 13:06:56 13:11:17 50° 288° (WNW) 13:15:36 145.980
Cosmos 2504 29 Aug 13:10:42 13:17:42 28° 278° (W) 13:24:11 435.465 / 435.565
JAS-2 29 Aug 13:22:38 13:26:14 15° 51° (NE) 13:30:15 435.910
ISS 29 Aug 13:23:17 13:25:47 20° 353° (N) 13:28:16 145.825
50 SAT 29 Aug 13:39:24 13:41:52 16° 294° (WNW) 13:44:11 437.505
PCSat 29 Aug 13:40:04 13:44:12 22° 252° (WSW) 13:48:10 145.827
AO-7 29 Aug 13:40:36 13:43:12 12° 41° (NE) 13:46:14 29.400- 29.500
ESTCUBE 1 29 Aug 13:51:07 13:54:48 25° 293° (WNW) 13:58:25 437.505/2401.250
Oscar 19 29 Aug 13:53:53 13:59:03 82° 75° (ENE) 14:04:17 437.125/150
CUSAT 1 29 Aug 14:05:00 14:09:38 17° 277° (W) 14:14:01 437.405
SWISSCUBE 29 Aug 14:06:03 14:08:50 16° 89° (E) 14:11:48 437.505
TISAT 1 29 Aug 14:09:16 14:13:34 89° 103° (ESE) 14:17:51 437.305
DANDE 29 Aug 14:11:26 14:16:45 21° 273° (W) 14:22:11 436.750
Gurwin Techsat 1B 29 Aug 14:12:49 14:17:44 40° 69° (ENE) 14:22:42 435.225
AISAT 29 Aug 14:16:36 14:18:11 11° 299° (WNW) 14:19:33 437.250
CUBEBUG 1 29 Aug 14:25:10 14:27:34 14° 297° (WNW) 14:29:48 437.445
SPROUT 29 Aug 14:30:18 14:34:12 32° 290° (WNW) 14:38:02 437.525
ITUPSAT 1 29 Aug 14:42:06 14:46:21 32° 96° (E) 14:50:38 437.325
GONETS M04 29 Aug 14:45:33 14:54:19 68° 78° (ENE) 15:03:07
ITAMSAT 1 29 Aug 14:46:40 14:51:47 67° 74° (ENE) 14:56:57 435.822/435.867
ISS 29 Aug 15:00:14 15:02:56 23° 13° (NNE) 15:05:38 145.825
JAS-2 29 Aug 15:02:24 15:09:51 60° 70° (ENE) 15:17:35 435.910
BEESAT 29 Aug 15:16:49 15:21:35 73° 103° (ESE) 15:26:20 436.000
RS-15 29 Aug 15:18:35 15:23:32 15° 98° (E) 15:29:26 29.354- 29.394
BEESAT 3 29 Aug 15:26:12 15:28:38 16° 112° (ESE) 15:31:13 437.485
AO-7 29 Aug 15:26:19 15:34:07 48° 62° (ENE) 15:42:01 29.400- 29.500
Cosmos 2499 29 Aug 15:34:23 15:42:27 40° 69° (ENE) 15:50:09 435.465 / 435.565
BEESAT 2 29 Aug 15:34:24 15:36:37 15° 111° (ESE) 15:39:00 435.950
KKS-1 29 Aug 15:35:44 15:38:57 20° 92° (E) 15:42:17 437.445
Oscar 19 29 Aug 15:36:52 15:39:10 12° 274° (W) 15:41:12 437.125/150
SWISSCUBE 29 Aug 15:42:27 15:47:08 58° 287° (WNW) 15:51:48 437.505
HORYU 2 29 Aug 15:45:39 15:49:37 32° 69° (ENE) 15:53:39 437.375
Gurwin Techsat 1B 29 Aug 15:53:19 15:57:51 27° 266° (W) 16:02:20 435.225
ITUPSAT 1 29 Aug 16:20:03 16:24:11 29° 293° (WNW) 16:28:14 437.325
ITAMSAT 1 29 Aug 16:28:41 16:31:52 16° 271° (W) 16:34:50 435.822/435.867
ISS 29 Aug 16:36:26 16:39:42 85° 37° (NE) 16:42:56 145.825
GONETS M04 29 Aug 16:43:25 16:50:33 27° 277° (W) 16:57:24
JAS-2 29 Aug 16:48:34 16:55:17 32° 269° (W) 17:02:04 435.910
BEESAT 29 Aug 16:56:17 16:58:54 14° 299° (WNW) 17:01:19 436.000
STARS 29 Aug 16:59:26 17:03:56 87° 103° (ESE) 17:08:22 437.465
BEESAT 3 29 Aug 17:02:12 17:06:11 52° 308° (NW) 17:10:13 437.485
MOZHAYETS 4 29 Aug 17:04:52 17:08:37 25° 93° (E) 17:12:26
BEESAT 2 29 Aug 17:10:12 17:14:15 58° 307° (NW) 17:18:20 435.950
KKS-1 29 Aug 17:11:33 17:15:49 43° 289° (WNW) 17:20:03 437.445
AO-7 29 Aug 17:19:10 17:27:03 43° 262° (W) 17:34:50 29.400- 29.500
HORYU 2 29 Aug 17:22:27 17:26:17 26° 266° (W) 17:30:04 437.375
RS-15 29 Aug 17:23:11 17:33:57 70° 118° (ESE) 17:45:13 29.354- 29.394
Cosmos 2499 29 Aug 17:27:32 17:35:51 49° 271° (W) 17:43:34 435.465 / 435.565
AIST 2 29 Aug 17:28:16 17:32:19 46° 119° (ESE) 17:36:26 435.215
Cubesat XI-IV 29 Aug 17:45:49 17:50:06 26° 65° (ENE) 17:54:29 437.490
ISS 29 Aug 18:14:10 18:15:41 12° 228° (SW) 18:17:06 145.825
CUTE-I 29 Aug 18:30:29 18:35:42 62° 73° (ENE) 18:40:58 437.470
STARS 29 Aug 18:38:27 18:39:44 11° 300° (WNW) 18:40:48 437.465
MOZHAYETS 4 29 Aug 18:41:47 18:45:55 33° 290° (WNW) 18:49:58
AIST 1 29 Aug 18:49:31 18:49:52 10° 64° (ENE) 18:50:27
CUBESAT XI-V 29 Aug 18:51:11 18:55:13 29° 95° (E) 18:59:17 437.345
BEESAT 2 29 Aug 18:52:20 18:53:13 10° 328° (NNW) 18:53:58 435.950
Cosmos 2491 29 Aug 19:00:38 19:04:44 14° 53° (NE) 19:09:23 435.465 / 435.565
AIST 2 29 Aug 19:07:40 19:11:07 23° 317° (NW) 19:14:30 435.215
GOMX 1 29 Aug 19:15:28 19:18:06 16° 62° (ENE) 19:21:00 467.674
STRAND 1 29 Aug 19:17:35 19:20:24 15° 88° (E) 19:23:27 437.568
Cubesat XI-IV 29 Aug 19:24:54 19:30:00 45° 262° (W) 19:35:05 437.490
HO-68 29 Aug 19:25:41 19:30:54 23° 57° (ENE) 19:36:21 435.675
RS-15 29 Aug 19:36:51 19:47:16 43° 324° (NW) 19:58:02 29.354- 29.394
DOVE 4 29 Aug 19:41:02 19:44:02 18° 63° (ENE) 19:47:18 437.250
CUTE 1.7 + AOD 2 29 Aug 19:54:22 19:56:47 15° 65° (ENE) 19:59:22 437.475
CANX-2 29 Aug 20:06:58 20:10:16 22° 67° (ENE) 20:13:40 2200.000
BRITE-PL 29 Aug 20:09:42 20:14:00 86° 77° (ENE) 20:18:40 437.365/2234.400
CUTE-I 29 Aug 20:12:38 20:16:17 18° 270° (W) 20:19:44 437.470
PRISM 29 Aug 20:23:22 20:27:18 44° 99° (E) 20:31:15 437.425
AIST 1 29 Aug 20:23:52 20:28:12 78° 262° (W) 20:32:31
O/OREOS (USA 219) 29 Aug 20:26:04 20:30:36 90° 292° (WNW) 20:35:12 437.305
CUBESAT XI-V 29 Aug 20:28:34 20:32:38 30° 291° (WNW) 20:36:38 437.345
SEEDS 29 Aug 20:32:32 20:36:13 29° 70° (ENE) 20:39:56 437.485
CINEMA 3 29 Aug 20:43:35 20:47:42 32° 68° (ENE) 20:52:02 145.822/145.860
GOMX 1 29 Aug 20:51:19 20:55:42 61° 260° (W) 21:00:27 467.674
CUBEBUG 2 29 Aug 20:51:44 20:54:54 19° 64° (ENE) 20:58:17 437.445
Cosmos 2491 29 Aug 20:55:05 21:03:47 67° 78° (ENE) 21:12:32 435.465 / 435.565
STRAND 1 29 Aug 20:55:06 21:00:11 68° 287° (WNW) 21:05:15 437.568
COMPASS 1 29 Aug 20:58:16 21:02:15 43° 72° (ENE) 21:06:16 437.405
ZACube-1 29 Aug 21:03:29 21:05:56 15° 63° (ENE) 21:08:35 437.345
UWE-3 29 Aug 21:03:53 21:07:06 20° 65° (ENE) 21:10:29 435.000/436.395/437.385
YUBILEINY 29 Aug 21:05:50 21:13:12 33° 85° (E) 21:20:51 435.215
FUNcube-1 29 Aug 21:09:40 21:12:26 17° 64° (ENE) 21:15:23 145.935
AAUSAT CUBESAT 2 29 Aug 21:10:37 21:14:40 50° 73° (ENE) 21:18:45 437.432
HO-68 29 Aug 21:10:48 21:17:58 79° 255° (WSW) 21:25:12 435.675
DOVE 4 29 Aug 21:16:52 21:21:19 56° 261° (W) 21:26:06 437.250
CUTE 1.7 + AOD 2 29 Aug 21:28:05 21:32:18 55° 260° (W) 21:36:31 437.475
CANX-2 29 Aug 21:42:03 21:46:01 35° 264° (W) 21:49:58 2200.000
DX 1 29 Aug 21:51:24 21:52:31 11° 61° (ENE) 21:53:52 434.975-435.025
DELFI C3 29 Aug 21:52:18 21:56:07 41° 72° (ENE) 21:59:57 145.870
RS-15 29 Aug 21:54:49 22:03:47 25° 357° (N) 22:13:03 29.354- 29.394
PRISM 29 Aug 21:59:42 22:02:26 17° 295° (WNW) 22:05:02 437.425
Oscar 11 29 Aug 21:59:44 22:04:05 79° 76° (ENE) 22:08:28 145.826/435.025
UKube-1 29 Aug 22:06:38 22:08:53 14° 63° (ENE) 22:11:18 .
HUMSAT D 29 Aug 22:07:28 22:10:58 25° 68° (ENE) 22:14:34 437.325/437.525
SEEDS 29 Aug 22:08:25 22:12:00 25° 266° (W) 22:15:31 437.485
O/OREOS (USA 219) 29 Aug 22:08:47 22:10:49 12° 314° (NW) 22:12:42 437.305
CINEMA 3 29 Aug 22:20:49 22:24:53 29° 267° (W) 22:29:05 145.822/145.860
CUBEBUG 2 29 Aug 22:26:42 22:31:13 51° 261° (W) 22:35:51 437.445
VELOX 1 29 Aug 22:30:36 22:33:30 18° 64° (ENE) 22:36:32 145.980
COMPASS 1 29 Aug 22:35:19 22:38:10 17° 269° (W) 22:40:53 437.405
ZACube-1 29 Aug 22:37:17 22:41:47 65° 260° (W) 22:46:23 437.345
TIGRISAT 29 Aug 22:38:12 22:38:35 10° 85° (E) 22:39:15 435.000
UWE-3 29 Aug 22:38:50 22:43:17 49° 262° (W) 22:47:49 435.000/436.395/437.385
FUNcube-1 29 Aug 22:43:52 22:48:20 57° 261° (W) 22:52:52 145.935
AAUSAT CUBESAT 2 29 Aug 22:48:09 22:50:36 15° 271° (W) 22:52:53 437.432
50 SAT 29 Aug 22:48:28 22:51:51 28° 70° (ENE) 22:55:17 437.505
ANTELSAT 29 Aug 22:52:14 22:54:56 16° 89° (E) 22:57:48 437.575/2403.000
Cosmos 2491 29 Aug 22:52:57 23:00:03 28° 277° (W) 23:06:54 435.465 / 435.565
YUBILEINY 29 Aug 23:01:02 23:09:40 58° 285° (WNW) 23:18:21 435.215
HO-68 29 Aug 23:03:20 23:07:01 14° 275° (W) 23:10:12 435.675
ESTCUBE 1 29 Aug 23:14:40 23:18:46 37° 70° (ENE) 23:22:55 437.505/2401.250
DX 1 29 Aug 23:23:50 23:28:11 83° 258° (WSW) 23:32:33 434.975-435.025
DELFI C3 29 Aug 23:28:41 23:31:23 17° 269° (W) 23:33:58 145.870
AISAT 29 Aug 23:36:18 23:40:42 86° 76° (ENE) 23:45:09 437.250
UKube-1 29 Aug 23:40:18 23:44:34 60° 259° (W) 23:48:51 .
UNISAT 6 29 Aug 23:41:55 23:46:26 51° 99° (E) 23:50:50 437.425
BEESAT 3 29 Aug 23:42:25 23:45:11 18° 40° (NE) 23:48:00 437.485
HUMSAT D 29 Aug 23:42:42 23:46:35 31° 264° (W) 23:50:27 437.325/437.525
POLYITAN 1 29 Aug 23:43:07 23:46:11 19° 92° (E) 23:49:21 437.675
CUBEBUG 1 29 Aug 23:44:21 23:48:36 61° 74° (ENE) 23:52:53 437.445
POPSAT HIP 1 29 Aug 23:46:35 23:49:45 20° 92° (E) 23:53:02 437.405
Cosmos 2504 29 Aug 23:48:24 23:55:58 48° 89° (E) 00:04:04 435.465 / 435.565
DUCHIFAT 1 29 Aug 23:49:10 23:52:22 21° 92° (E) 23:55:40 145.980
SPROUT 29 Aug 23:50:02 23:53:20 22° 67° (ENE) 23:56:44 437.525
BEESAT 2 29 Aug 23:51:01 23:53:42 17° 39° (NE) 23:56:26 435.950
QB50P2 30 Aug 00:02:28 00:06:18 31° 96° (E) 00:10:09 145.880/145.840
NANOSAT C BR1 30 Aug 00:05:21 00:09:11 31° 96° (E) 00:13:03 145.865
VELOX 1 30 Aug 00:05:27 00:09:43 48° 261° (W) 00:14:00 145.980
BUGSAT 1 30 Aug 00:07:08 00:10:18 21° 93° (E) 00:13:33 437.445
AUBIESAT-1 30 Aug 00:07:10 00:11:09 55° 105° (ESE) 00:14:48 437.475
M-CUBED/EXP-1 PRIME 30 Aug 00:10:08 00:14:16 73° 107° (ESE) 00:18:01 437.505
RS-15 30 Aug 00:10:12 00:20:42 37° 31° (NNE) 00:31:44 29.354- 29.394
TIGRISAT 30 Aug 00:11:26 00:16:04 82° 284° (WNW) 00:20:34 435.000
QB50P1 30 Aug 00:17:50 00:21:57 44° 98° (E) 00:26:04 145.935-145.965
50 SAT 30 Aug 00:23:08 00:26:22 23° 266° (W) 00:29:33 437.505
ANTELSAT 30 Aug 00:27:37 00:32:09 54° 287° (WNW) 00:36:32 437.575/2403.000
BEESAT 30 Aug 00:50:02 00:51:49 12° 60° (ENE) 00:53:49 436.000
ESTCUBE 1 30 Aug 00:52:11 00:55:46 22° 267° (W) 00:59:16 437.505/2401.250
TISAT 1 30 Aug 01:02:07 01:06:18 76° 76° (ENE) 01:10:33 437.305
YUBILEINY 30 Aug 01:05:39 01:09:04 12° 310° (NW) 01:11:53 435.215
SWISSCUBE 30 Aug 01:13:35 01:17:10 22° 65° (ENE) 01:20:51 437.505
POLYITAN 1 30 Aug 01:18:12 01:22:16 40° 289° (WNW) 01:26:17 437.675
BEESAT 3 30 Aug 01:19:30 01:23:30 60° 239° (WSW) 01:27:24 437.485
UNISAT 6 30 Aug 01:19:39 01:22:50 18° 296° (WNW) 01:25:50 437.425
POPSAT HIP 1 30 Aug 01:21:47 01:25:47 37° 289° (WNW) 01:29:44 437.405
CUBEBUG 1 30 Aug 01:23:23 01:25:26 13° 272° (W) 01:27:17 437.445
DUCHIFAT 1 30 Aug 01:24:20 01:28:19 36° 289° (WNW) 01:32:13 145.980
SPROUT 30 Aug 01:25:17 01:29:14 35° 263° (W) 01:33:12 437.525
SO-50 30 Aug 01:26:12 01:29:31 19° 111° (ESE) 01:33:03 436.795
BEESAT 2 30 Aug 01:28:08 01:32:10 66° 239° (WSW) 01:36:08 435.950
CUSAT 1 30 Aug 01:29:25 01:33:08 65° 284° (WNW) 01:38:07 437.405
QB50P2 30 Aug 01:38:31 01:42:05 25° 292° (WNW) 01:45:34 145.880/145.840
Cosmos 2504 30 Aug 01:40:49 01:48:23 40° 290° (WNW) 01:56:15 435.465 / 435.565
DANDE 30 Aug 01:41:21 01:44:39 80° 281° (W) 01:49:05 436.750
NANOSAT C BR1 30 Aug 01:41:22 01:44:54 25° 292° (WNW) 01:48:20 145.865
BUGSAT 1 30 Aug 01:41:57 01:45:53 37° 289° (WNW) 01:49:48 437.445
AUBIESAT-1 30 Aug 01:43:08 01:45:23 14° 304° (WNW) 01:47:25 437.475
M-CUBED/EXP-1 PRIME 30 Aug 01:46:46 01:48:25 12° 305° (NW) 01:49:51 437.505
AIST 2 30 Aug 01:48:50 01:52:52 44° 50° (NE) 01:56:50 435.215
ITUPSAT 1 30 Aug 01:49:54 01:54:23 43° 70° (ENE) 01:58:55 437.325
TIGRISAT 30 Aug 01:51:43 01:52:04 10° 301° (WNW) 01:52:10 435.000
QB50P1 30 Aug 01:54:29 01:57:31 19° 295° (WNW) 02:00:26 145.935-145.965
GONETS M04 30 Aug 01:56:55 02:00:43 14° 76° (ENE) 02:05:07
Oscar 19 30 Aug 02:04:49 02:09:08 27° 93° (E) 02:13:32 437.125/150
RS-15 30 Aug 02:22:55 02:34:49 88° 236° (SW) 02:47:06 29.354- 29.394
BEESAT 30 Aug 02:24:15 02:29:02 87° 256° (WSW) 02:33:50 436.000
STARS 30 Aug 02:25:14 02:25:44 10° 60° (ENE) 02:26:27 437.465
Gurwin Techsat 1B 30 Aug 02:29:13 02:31:52 14° 87° (E) 02:34:47 435.225
KKS-1 30 Aug 02:35:09 02:38:29 21° 66° (ENE) 02:41:56 437.445
PCSat 30 Aug 02:38:42 02:43:42 41° 113° (ESE) 02:48:47 145.827
SWISSCUBE 30 Aug 02:50:12 02:54:45 44° 261° (W) 02:59:20 437.505
ITAMSAT 1 30 Aug 02:59:05 03:02:57 22° 92° (E) 03:06:57 435.822/435.867
SO-50 30 Aug 03:04:55 03:09:40 58° 309° (NW) 03:14:34 436.795
AIST 2 30 Aug 03:28:04 03:31:09 20° 247° (WSW) 03:34:05 435.215
ITUPSAT 1 30 Aug 03:28:46 03:32:30 22° 268° (W) 03:36:07 437.325
AO-7 30 Aug 03:30:30 03:32:04 11° 82° (E) 03:34:23 29.400- 29.500
Oscar 19 30 Aug 03:43:46 03:48:39 40° 291° (WNW) 03:53:27 437.125/150
GONETS M04 30 Aug 03:47:33 03:56:11 75° 94° (E) 04:04:54
JAS-2 30 Aug 03:56:55 04:03:46 46° 95° (E) 04:09:52 435.910
STARS 30 Aug 03:57:06 04:01:30 88° 83° (E) 04:05:59 437.465
Gurwin Techsat 1B 30 Aug 04:07:13 04:12:33 76° 286° (WNW) 04:17:51 435.225
MOZHAYETS 4 30 Aug 04:07:52 04:11:47 28° 68° (ENE) 04:15:45
KKS-1 30 Aug 04:10:41 04:14:54 40° 262° (W) 04:19:07 437.445
Cosmos 2499 30 Aug 04:12:19 04:19:13 31° 83° (E) 04:26:39 435.465 / 435.565
PCSat 30 Aug 04:22:19 04:27:13 33° 312° (NW) 04:32:07 145.827
RS-15 30 Aug 04:36:57 04:46:01 25° 257° (WSW) 04:54:39 29.354- 29.394
ITAMSAT 1 30 Aug 04:37:46 04:42:47 49° 290° (WNW) 04:47:45 435.822/435.867
SO-50 30 Aug 04:48:46 04:51:19 14° 330° (NNW) 04:53:45 436.795
O/OREOS (USA 219) 30 Aug 04:56:11 04:59:58 25° 55° (NE) 05:03:47 437.305
HORYU 2 30 Aug 05:11:36 05:15:59 53° 100° (E) 05:20:20 437.375
AO-7 30 Aug 05:18:36 05:26:50 63° 103° (ESE) 05:35:02 29.400- 29.500
VERMONT LUNAR 30 Aug 05:26:58 05:29:23 22° 160° (SSE) 05:31:49 437.305
JAS-2 30 Aug 05:42:11 05:48:39 35° 297° (WNW) 05:54:22 435.910
MOZHAYETS 4 30 Aug 05:44:49 05:48:57 31° 265° (W) 05:53:02
GONETS M04 30 Aug 05:47:01 05:54:04 26° 298° (WNW) 06:00:53
Gurwin Techsat 1B 30 Aug 05:49:52 05:51:44 12° 303° (WNW) 05:53:20 435.225
CUBESAT XI-V 30 Aug 05:55:43 05:59:46 32° 70° (ENE) 06:03:54 437.345
Cosmos 2499 30 Aug 06:03:29 06:11:51 63° 283° (WNW) 06:20:39 435.465 / 435.565
STRAND 1 30 Aug 06:34:11 06:38:18 26° 65° (ENE) 06:42:31 437.568
O/OREOS (USA 219) 30 Aug 06:35:15 06:39:33 38° 253° (WSW) 06:43:46 437.305
CUTE-I 30 Aug 06:47:04 06:51:06 22° 92° (E) 06:55:15 437.470
HORYU 2 30 Aug 06:49:17 06:52:14 17° 296° (WNW) 06:55:01 437.375
VERMONT LUNAR 30 Aug 07:02:37 07:05:30 46° 176° (S) 07:08:23 437.305
PHONESAT 2.4 30 Aug 07:08:20 07:10:43 18° 155° (SSE) 07:13:10 2401.200-2431.200
AO-7 30 Aug 07:12:01 07:19:14 33° 303° (WNW) 07:26:15 29.400- 29.500
PRISM 30 Aug 07:14:22 07:18:09 38° 70° (ENE) 07:21:59 437.425
YUBILEINY 30 Aug 07:14:27 07:19:43 17° 56° (NE) 07:25:25 435.215
CUBESAT XI-V 30 Aug 07:33:21 07:37:16 26° 266° (W) 07:41:06 437.345
Cubesat XI-IV 30 Aug 07:40:36 07:45:54 67° 101° (ESE) 07:51:13 437.490
Cosmos 2499 30 Aug 08:02:50 08:07:20 14° 308° (NW) 08:11:22 435.465 / 435.565
Cosmos 2491 30 Aug 08:06:40 08:10:22 14° 76° (ENE) 08:14:40 435.465 / 435.565
STRAND 1 30 Aug 08:12:30 08:17:20 41° 262° (W) 08:22:09 437.568
BRITE-PL 30 Aug 08:12:37 08:17:21 30° 94° (E) 08:22:18 437.365/2234.400
CUTE-I 30 Aug 08:26:21 08:31:30 50° 290° (WNW) 08:36:37 437.470
HO-68 30 Aug 08:38:40 08:43:19 19° 88° (E) 08:48:17 435.675
VERMONT LUNAR 30 Aug 08:38:56 08:41:42 35° 193° (SSW) 08:44:27 437.305
PHONESAT 2.4 30 Aug 08:44:55 08:48:11 44° 171° (S) 08:51:26 2401.200-2431.200
PRISM 30 Aug 08:50:49 08:53:46 18° 268° (W) 08:56:35 437.425
GOMX 1 30 Aug 08:51:20 08:56:24 40° 96° (E) 09:01:35 467.674
AIST 1 30 Aug 08:54:18 08:58:27 57° 95° (E) 09:02:38
YUBILEINY 30 Aug 09:09:31 09:18:24 78° 79° (E) 09:27:14 435.215
CUTE 1.7 + AOD 2 30 Aug 09:12:38 09:15:57 23° 93° (E) 09:19:21 437.475
DOVE 4 30 Aug 09:14:21 09:19:21 40° 96° (E) 09:24:20 437.250
ISS 30 Aug 09:17:40 09:19:12 13° 132° (SE) 09:20:50 145.825
Cubesat XI-IV 30 Aug 09:21:54 09:25:32 18° 299° (WNW) 09:29:00 437.490
AUBIESAT-1 30 Aug 09:22:56 09:24:58 13° 56° (NE) 09:27:09 437.475
M-CUBED/EXP-1 PRIME 30 Aug 09:25:31 09:28:19 16° 58° (ENE) 09:31:16 437.505
CANX-2 30 Aug 09:25:56 09:29:50 35° 96° (E) 09:33:43 2200.000
Cosmos 2504 30 Aug 09:34:38 09:39:47 18° 56° (ENE) 09:45:12 435.465 / 435.565
TIGRISAT 30 Aug 09:37:20 09:39:13 13° 61° (ENE) 09:41:20 435.000
PCSat 30 Aug 09:44:10 09:45:19 11° 29° (NNE) 09:46:40 145.827
Oscar 11 30 Aug 09:47:40 09:49:37 13° 88° (E) 09:51:46 145.826/435.025
SEEDS 30 Aug 09:50:42 09:54:45 47° 98° (E) 09:58:48 437.485
BRITE-PL 30 Aug 09:50:51 09:55:56 41° 290° (WNW) 10:01:10 437.365/2234.400
ANTELSAT 30 Aug 09:52:15 09:55:20 18° 64° (ENE) 09:58:36 437.575/2403.000
SO-50 30 Aug 09:55:18 09:59:35 28° 42° (NE) 10:03:51 436.795
